www.pogodaiklimat.ru

Погода и климат >> Архив погоды >> Беларусь >> Пружаны


ПОГОДА в Пружанах

  • Прогноз погоды в Пружанах
  • Монитор погоды в Пружанах

АРХИВ ПОГОДЫ в Пружанах

Время (UTC), дата Ветер
(напр.,м/с)
 
Видим.   Явления Облачность Т
(С)
Тd
(С)
f
(%)
Тe
(С)
Тes
(С)
Комфортность P
(гПа)
Po
(гПа)
Тmin
(С)
Tmax
(С)
R
(мм)
R24
(мм)
S
(см)
18 15.01 З 4 20 км {ливн. осадки} 3/0
[Ac trans]
-2.4 -4.3 87 -8 -8 998.4 978.1 -1.2 3 8
03 16.01 3200 м н/о -2.7 -3.1 97 998.0 977.2 -2.7
06 16.01 З 1 15 км 10/5 600 м
[Sc Ac und]
-3.9 -4.7 94 -6 -6 1001.6 981.1 -5.6 2 14
09 16.01 З 2 20 км в посл. час ливневой снег 9/5 600 м
[Cb calv Ac trans]
-1.7 -2.8 92 -6 -5 1004.8 984.4
12 16.01 З 3 20 км {ливн. осадки} 10/10 360 м
[St]
-0.8 -3.0 85 -6 -6 1005.8 985.5
15 16.01 ЮЗ 2 15 км 10/8 1110 м
[Sc Ac und]
-2.0 -2.9 94 -6 -6 1006.6 986.2
18 16.01 ЮЗ 3 15 км 10/10 570 м
[Sc]
-1.0 -1.7 95 -6 -6 1006.1 985.8 -0.4 0.0 12
03 17.01 2600 м дымка н/о +1.7 +1.4 98 1003.0 982.4 -2.0
06 17.01 ЮЗ 5 10 км 10 баллов +1.3 +0.7 96 -5 -5 1001.0 980.4 -1.1 0.3 5
09 17.01 Ю 5
{10}
20 км 10/10 360 м
[St]
+1.7 -0.5 85 -4 -4 999.9 979.9
12 17.01 ЮЗ 5 10 км 10 баллов +3.1 -1.1 74 -2 -2 999.0 978.6
15 17.01 ЮЗ 5
{10}
20 км 10/10 700 м
[Sc]
+2.7 -0.6 79 -3 -3 1000.4 980.5
18 17.01 ЮЗ 4 20 км 10/0
[Ac und]
+2.6 +1.0 89 -2 -2 1001.8 981.9 +3.8 5
03 18.01 9000 м дымка н/о +1.9 +0.9 93 1002.0 981.4 +1.6
06 18.01 З 4 15 км 10/0
[Ac und]
+2.1 +0.5 89 -3 -3 1001.4 981.4 +1.1 0.1 4
09 18.01 З 7-11
{11}
20 км 10/3 600 м
[Sc Ac trans Ci fib]
+2.7 -1.5 74 -3 -3 1003.4 983.4
12 18.01 З 7-11
{14}
20 км в посл. час крупа {ливн. осадки} 10/5 600 м
[Cb calv Ac und]
+2.3 -3.0 68 -4 -4 1004.9 984.8
15 18.01 С 6-10
{12}
20 км {ливн. осадки} 4/3 300 м
[Sc Ac trans]
-1.0 -4.6 77 -8 -8 1010.9 990.5
18 18.01 СЗ 3
{10}
15 км {ливн. осадки} 10/0
[Ac und]
-1.4 -4.0 82 -6 -6 1013.6 993.1 +2.9 0.0 3
03 19.01 10 км н/о -4.5 -5.7 91 1019.0 997.6 -4.6
06 19.01 З 2 15 км 10/10 240 м
[St]
-4.0 -5.4 90 -8 -8 1019.4 998.5 -5.0 3
09 19.01 З 3 20 км 8/8 450 м
[St]
-2.8 -5.5 82 -8 -8 1020.7 999.9
12 19.01 З 4 20 км 10/10 600 м
[Sc]
-1.4 -5.4 74 -7 -7 1020.8 1000.1
15 19.01 З 3 20 км 10/10 700 м
[Sc]
-1.8 -6.4 71 -7 -7 1021.4 1000.6
18 19.01 З 1 20 км 10/10 750 м
[Sc]
-2.2 -5.6 77 -4 -4 1021.8 1001.0 -1.2 3
03 20.01 10 км н/о -5.3 -7.4 85 1021.0 999.5 -6.4
06 20.01 З 1 15 км 10/0
[Ac und]
-6.2 -7.7 89 -9 -9 1019.8 998.7 -6.3 3
09 20.01 З 1 20 км 6/0
[Ci fib]
-4.9 -7.0 85 -7 -6 1019.6 998.7
12 20.01 СЗ 2 20 км 4/3 600 м
[Sc Ci fib]
-2.4 -6.4 74 -6 -5 1018.0 997.4
15 20.01 СЗ 3 20 км 10/10 570 м
[Sc]
-2.6 -6.7 73 -8 -8 1017.4 996.8
18 20.01 З 2 15 км 10/10 750 м
[Sc]
-2.7 -6.4 76 -7 -7 1017.1 996.5 -2.1 3
03 21.01 10 км н/о -4.9 -6.4 89 1020.0 998.5 -5.0
06 21.01 З 3 8000 м дымка 10/10 150 м
[St]
-4.4 -5.3 93 -10 -10 1020.6 999.7 -7.4 3
09 21.01 З 2 6000 м дымка 10/10 90 м
[St]
-4.9 -5.2 98 -9 -9 1021.9 1001.0
12 21.01 З 2 10 км ясно -2.6 -5.6 80 -7 -5 1022.0 1000.7
15 21.01 З 3 10 км 10 баллов -4.2 -5.4 91 -10 -10 1022.0 1000.5
18 21.01 ЮЗ 2 8000 м 10 баллов -3.7 -4.8 92 -8 -8 1021.0 999.6 -1.8 3
03 22.01 7000 м дымка н/о -3.1 -5.3 85 1020.0 998.7
06 22.01 ЮЗ 3 10 км 10 баллов -3.8 -5.3 89 -9 -9 1020.0 998.6 -3.9 3
09 22.01 З 1 10 км 10 баллов -3.5 -5.7 85 -6 -6 1020.0 998.6
12 22.01 ЮЗ 1 10 км 10 баллов -2.0 -5.7 76 -4 -4 1019.0 997.8

 

Местоположение метеостанции Пружаны (Брестская область, Беларусь): широта 52.55 долгота 24.49 высота над уровнем моря 167 м.

В архиве по умолчанию представлена погода в Пружанах за последнюю неделю. Архивные данные за месяц целиком и за предыдущие месяцы, начиная с января 2011 года, Вы можете получить, выбрав интересующий диапазон дат из раскрывающегося списка и нажав кнопку "Ввод!".


*Определитесь, кто Вы:
робот инопланетянин человек

Внимание! Время в таблицах - всемирное. Для получения местного времени необходимо прибавить поправку, которая равна 3 ч.

Смотрите также архив погоды в соседних городах и на ближайших метеорологических станциях:

Погода в Дрогичине (Брестская область, Беларусь) (57 км)
Погода в Ивацевичах (Брестская область, Беларусь) (61 км)
Погода в Волковыске (Гродненская область, Беларусь) (69 км)
Погода в Бресте (Брестская область, Беларусь) (72 км)
Погода в Высоком (Брестская область, Беларусь) (77 км)
Погода в Тересполе (Польша) (80 км)
Погода в Белостоке (Польша) (108 км)
Погода в Любешове (Волынская область, Украина) (111 км)
Погода в Пинске (Брестская область, Беларусь) (117 км)
Погода в Барановичах (Брестская область, Беларусь) (119 км)

Пояснения к столбцам:

Ветер - указаны скорость ветра в м/с - средняя за 10 мин, порывы в срок и между сроками (в фигурных скобках) и направление, откуда дует ветер: С - северный, СВ - северо-восточный, В - восточный, ЮВ - юго-восточный, Ю - южный, ЮЗ - юго-западный, З - западный, СЗ - северо-западный.
Видимость - горизонтальная дальность видимости в метрах или километрах. При видимости от 1 до 10 км при отсутствии осадков обычно наблюдается дымка, при ухудшении видимости до 1 км и менее - туман. В сухую погоду видимость может ухудшаться дымом, пылью или мглою.
Явления - указаны атмосферные явления, наблюдавшиеся в срок или в последний час перед сроком; фигурными скобками обозначены явления, наблюдавшиеся между сроками (за 1-3 часа до срока); квадратными скобками обозначены град или гололедные отложения с указанием их диаметра в мм.
Облачность - указаны через наклонную черту общая и нижняя облачность в баллах и высота нижней границы облаков в метрах; квадратными скобками обозначены формы облаков: Ci - перистые, Cs - перисто-слоистые, Cc - перисто-кучевые, Ac - высококучевые, As - высокослоистые, Sc - слоисто-кучевые, Ns - слоисто-дождевые, Cu - кучевые, Cb - кучево-дождевые. Подробнее классификацию облаков см. в Атласе облаков (PDF).
T - Температура воздуха - температура, измеренная на высоте 2 м над землей.
Td - Температура точки росы - температура, при понижении до которой содержащийся в воздухе водяной пар достигнет насыщения.
f - Относительная влажность воздуха - влажноcть воздуха, измеренная на высоте 2 м над землей.
Te - Эффективная температура - температура, которую ощущает одетый по сезону человек в тени. Характеристика душности погоды. При расчете учитывается влияние влажности воздуха и скорости ветра на теплоощущения человека.
Tes - Эффективная температура на солнце - температура, которую ощущает человек, с поправкой на солнечный нагрев. Характеристика знойности погоды. Зависит от высоты солнца над горизонтом, облачности и скорости ветра. Ночью, в пасмурную погоду, а также при ветре 12 м/с и более поправка равна нулю.
P - Атмосферное давление - приведенное к уровню моря атмосферное давление.
Po - Атмосферное давление - измеренное на уровне метеостанции атмосферное давление.
Tmin - Минимальная температура - минимум температуры воздуха на высоте 2 м над землей.
Tmax - Максимальная температура - максимум температуры воздуха на высоте 2 м над землей.
R - Количество осадков - Количество выпавших осадков за период времени, мм. При наведении курсора мыши на число - период времени, за который выпало указанное количество осадков.
R24 - Количество осадков - Количество выпавших осадков за 24 часа, мм.
S - Снежный покров - Высота снежного покрова, см. При наведении курсора мыши на число - состояние снежного покрова и степень покрытия местности в баллах.